User: anonymous
Location: Waldport
(44.4270°N, 124.0680°W)
Time: 10:35:01
(UTC-07:00)
Language:

Cosmos 1570 Rocket - Orbit

View from above orbital plane
View from above orbital plane
View from above satellite
View from above satellite

Ground track
Ground track

The orbit data is extracted from the following two-line orbital elements,

1 15032U 84056B   14211.11594032 -.00000023  00000-0  10092-5 0  4457
2 15032 074.0705 200.8983 0018720 270.0844 156.7634 14.34388684575917
Epoch (UTC): 30 July 2014 02:46:57
Eccentricity: 0.0018720
inclination: 74.0705°
perigee height: 764 km
apogee height: 790 km
right ascension of ascending node: 200.8983°
argument of perigee: 270.0844°
revolutions per day: 14.34388684
mean anomaly at epoch: 156.7634°
orbit number at epoch: 57591

The dashed part of the orbit path shows where the satellite is in the earth's shadow,  

DLR